Regional Weather Roundup
Issued by NWS Midland/Odessa, TX

Skip options and go directly to product.
Home | Oldest Version | Next Version | Current Version | All | Text Only | Save Text | Print | Product List | Glossary On

Skip product version selection by date and time.   
139
ASUS44 KMAF 291702
RWRMAF
MIDLAND AREA WEATHER ROUNDUP
NATIONAL WEATHER SERVICE MIDLAND TX
1200 PM CDT TUE JUL 29 2014

...IN SOUTHWEST TEXAS AND SOUTHEAST NEW MEXICO...

CITY           SKY/WX    TMP DP  RH WIND       PRES   REMARKS
ALPINE         SUNNY     85  46  25 SE3       30.31S
ANDREWS        FAIR      83  62  48 E7        30.22F
ARTESIA        CLOUDY    73  66  78 N13       30.28R
BIG SPRING     MOSUNNY   87  60  41 S6        30.21S
CARLSBAD       CLOUDY    82  60  47 N12       30.22R
DRYDEN           N/A     96  62  32 SE17      30.12F
FORT STOCKTON  MOSUNNY   90  54  29 SE9       30.17F
GUAD PASS      PTSUNNY   80  58  46 E10       30.35S
HOBBS          MOSUNNY   75  59  57 NE7       30.27R
MARFA          SUNNY     81  54  39 S6        30.31S
MIDLAND AIRPK  SUNNY     89  61  39 S7        30.19F
MIDLAND INTL   SUNNY     89  62  40 VRB7      30.18F
ODESSA         SUNNY     88  60  38 S9        30.19F
PECOS          MOSUNNY   89  56  33 E5        30.15S
PRESIDIO       FAIR      91  53  27 S3        30.13F
SEMINOLE       SUNNY     79  59  50 NE8       30.26S
SNYDER         SUNNY     82  64  55 NE3       30.20F
WINK           MOSUNNY   90  59  35 E8        30.15F
$$
...OTHER STATIONS IN TEXAS...

CITY           SKY/WX    TMP DP  RH WIND       PRES   REMARKS
ABILENE        SUNNY     86  65  49 VRB6      30.18S
AMARILLO       CLOUDY    74  61  63 S14       30.27R
AUSTIN         MOSUNNY   91  67  44 VRB3      30.10F
BROWNSVILLE    MOSUNNY   92  73  53 S13G20    30.07F HX 100
CORPUS CHRISTI MOSUNNY   93  69  45 S10       30.07F
DALLAS FTW     CLOUDY    83  61  47 SE5       30.15F
DEL RIO        SUNNY     91  66  43 VRB5      30.08F
EL PASO        LGT RAIN  70  66  87 N10       30.23S
HOUSTON INT    CLOUDY    90  75  61 VRB5      30.08F HX 100
LUBBOCK        LGT RAIN  70  63  78 CALM      30.26S
SAN ANGELO     SUNNY     91  65  41 SE7       30.15F
SAN ANTONIO    MOSUNNY   91  65  41 SE5       30.11S
WACO           PTSUNNY   86  68  54 VRB7      30.14S
WICHITA FALLS  NOT AVBL
$$
...OTHER LOCATIONS IN NEW MEXICO...

CITY           SKY/WX    TMP DP  RH WIND       PRES   REMARKS
ALAMAGORDO     PTSUNNY   70  64  83 CALM      30.27S
ALBUQUERQUE    PTSUNNY   73  60  63 S6        30.32F
CANNON AFB     RAIN      64  64 100 SW13      30.32R
CLOVIS           N/A    N/A N/A N/A SW15      30.32
HOLLOMAN AFB   MOSUNNY   77  64  65 S7        30.24F
ROSWELL        RAIN      69  67  93 E7        30.27F FOG
RUIDOSO        CLOUDY    59  59 100 CALM      30.45S
SANTA FE       PTSUNNY   69  59  70 S5        30.37F
TRUTH OR CONSE SUNNY     80  52  37 S12       30.26F
TUCUMCARI      CLOUDY    70  64  81 SW12      30.25F
$$

USA.gov is the U.S. government's official web portal to all federal, state and local government web resources and services.